Change the Weather History Date:

Saturday, December 14, 2013

  Actual Average Record
Temperature  
Mean Temperature 45 °F -  
Max Temperature 52 °F 42 °F 59 °F (1998)
Min Temperature 38 °F 34 °F 26 °F (2012)
Degree Days  
Heating Degree Days 20    
Moisture  
Dew Point 40 °F    
Average Humidity 79    
Maximum Humidity 88    
Minimum Humidity 66    
Precipitation  
Precipitation 0.08 in - - ()
Sea Level Pressure  
Sea Level Pressure 29.64 in    
Wind  
Wind Speed 17 mph ()    
Max Wind Speed 34 mph    
Max Gust Speed 50 mph    
Visibility 7.5 miles    
Events Rain    
Averages and records for this station are not official NWS values.
T = Trace of Precipitation, MM = Missing Value Source: Averaged Metar Reports

Daily Weather History Graph

Daily Weather History Graph

Search for Another Location

Airport or City:

Trip Planner

Search our weather history database for the weather conditions in past years. The results will help you decide how hot, cold, wet, or windy it might be!

Date:

Astronomy

Dec. 14, 2013 Rise Set
Actual Time 8:38 AM GMT 3:33 PM GMT
Civil Twilight 7:50 AM GMT 4:21 PM GMT
Nautical Twilight 7:00 AM GMT 5:11 PM GMT
Astronomical Twilight 6:14 AM GMT 5:57 PM GMT
Moon 2:08 PM GMT (12/14) 5:20 AM GMT (12/14)
Length of Visible Light 8h 31m
Length of Day
6h 55m
Waxing Gibbous, 92% of the Moon is Illuminated
Dec 14
Waxing Gibbous
Dec 17
Full
Dec 25
Last Quarter
Jan 1
New
Jan 8
First Quarter

Hourly Weather History & Observations

Time (GMT) Temp. Windchill Dew Point Humidity Pressure Visibility Wind Dir Wind Speed Gust Speed Precip Events Conditions
12:00 AM 43 °F - 37 °F 72% 29.83 in 22 mi SW 17.3 mph - - Rain Light Rain
12:50 AM 42.8 °F 35.8 °F 37.4 °F 81% 29.83 in 6.2 mi WSW 13.8 mph - N/A   Mostly Cloudy
1:50 AM 42.8 °F 35.4 °F 35.6 °F 76% 29.83 in 6.2 mi WSW 15.0 mph - N/A   Mostly Cloudy
2:50 AM 41.0 °F 32.5 °F 35.6 °F 81% 29.83 in 6.2 mi WSW 17.3 mph - N/A   Partly Cloudy
3:00 AM 42 °F - 35 °F 69% 29.85 in 25 mi WSW 17.3 mph - -   Scattered Clouds
3:50 AM 41.0 °F 33.5 °F 35.6 °F 81% 29.86 in 6.2 mi WSW 13.8 mph - N/A   Scattered Clouds
4:50 AM 41.0 °F 33.5 °F 35.6 °F 81% 29.86 in 6.2 mi WSW 13.8 mph - N/A   Mostly Cloudy
5:50 AM 39.2 °F 33.6 °F 35.6 °F 87% 29.86 in 6.2 mi WSW 8.1 mph - N/A   Scattered Clouds
6:00 AM 38 °F - 35 °F 83% 29.88 in 25 mi WSW 8.1 mph - -   Partly Cloudy
6:50 AM 39.2 °F 31.2 °F 35.6 °F 87% 29.86 in 6.2 mi SW 13.8 mph - N/A   Scattered Clouds
7:50 AM 39.2 °F 32.0 °F 33.8 °F 81% 29.83 in 6.2 mi SSW 11.5 mph - N/A   Partly Cloudy
8:50 AM 42.8 °F 37.0 °F 33.8 °F 70% 29.80 in 6.2 mi SSW 10.4 mph - N/A   Mostly Cloudy
9:00 AM 42 °F - 35 °F 66% 29.81 in 19 mi SSW 10.4 mph - -   Partly Cloudy
9:50 AM 42.8 °F 35.4 °F 35.6 °F 76% 29.74 in 6.2 mi SE 15.0 mph - N/A   Mostly Cloudy
10:50 AM 48.2 °F - 41.0 °F 76% 29.68 in 6.2 mi South 21.9 mph - N/A   Mostly Cloudy
11:50 AM 48.2 °F - 41.0 °F 76% 29.62 in 6.2 mi South 19.6 mph - N/A   Mostly Cloudy
12:00 PM 49 °F - 41 °F 66% 29.62 in 17 mi South 19.6 mph - -   Mostly Cloudy
12:50 PM 51.8 °F - 42.8 °F 71% 29.56 in 6.2 mi SSW 32.2 mph - N/A Rain Light Rain
1:50 PM 50.0 °F - 44.6 °F 82% 29.47 in 6.2 mi SSW 31.1 mph 44.9 mph N/A Rain Light Rain
2:50 PM 50.0 °F - 44.6 °F 82% 29.42 in 6.2 mi SW 33.4 mph 44.9 mph N/A Rain Light Rain
3:00 PM 50 °F - 45 °F 77% 29.44 in 10 mi SW 33.4 mph - - Rain Light Rain
3:50 PM 50.0 °F - 46.4 °F 87% 29.39 in 6.2 mi SW 34.5 mph 49.5 mph N/A Rain Light Rain
4:50 PM 51.8 °F - 46.4 °F 82% 29.39 in 6.2 mi SW 33.4 mph - N/A Rain Rain
5:50 PM 51.8 °F - 48.2 °F 88% 29.36 in 6.2 mi SW 34.5 mph 49.5 mph N/A   Light Drizzle
6:00 PM 51 °F - 47 °F 83% 29.37 in 11 mi SW 34.5 mph - - Rain Light Drizzle
6:50 PM 51.8 °F - 44.6 °F 76% 29.42 in 6.2 mi West 26.5 mph - N/A   Mostly Cloudy
7:50 PM 48.2 °F - 41.0 °F 76% 29.44 in 6.2 mi WSW 24.2 mph - N/A   Partly Cloudy
8:50 PM 46.4 °F 38.5 °F 42.8 °F 87% 29.47 in - West 21.9 mph - N/A   Clear
9:00 PM 47 °F - 43 °F 81% 29.50 in 22 mi West 21.9 mph - -   Partly Cloudy
9:50 PM 46.4 °F 39.0 °F 41.0 °F 81% 29.53 in - West 19.6 mph - N/A   Clear
10:50 PM 46.4 °F 38.5 °F 41.0 °F 81% 29.56 in - WSW 21.9 mph - N/A   Clear
11:50 PM 46.4 °F 38.3 °F 39.2 °F 76% 29.59 in - WSW 23.0 mph - N/A   Clear